This is the latest recevied weather packets stored in our database for station/object OK1KZE-6. If no packets are shown the sender has not sent any weather packets the latest 10 day(s).
| Time | Temp. | Humidity | Pressure | Rain* | Wind** | Luminosity | Snow |
|---|---|---|---|---|---|---|---|
| 1777719008 | 20° C | 33% | 1025.6 hPa | - | - | - | - |
| 1777718708 | 20° C | 33% | 1025.5 hPa | - | - | - | - |
| 1777718407 | 20° C | 34% | 1025.8 hPa | - | - | - | - |
| 1777718108 | 20° C | 34% | 1025.5 hPa | - | - | - | - |
| 1777717808 | 19.44° C | 35% | 1025.9 hPa | - | - | - | - |
| 1777717508 | 20.56° C | 34% | 1025.8 hPa | - | - | - | - |
| 1777717207 | 20° C | 36% | 1025.9 hPa | - | - | - | - |
| 1777716909 | 20° C | 35% | 1026 hPa | - | - | - | - |
| 1777716608 | 20° C | 36% | 1026.1 hPa | - | - | - | - |
| 1777716308 | 20° C | 37% | 1026.2 hPa | - | - | - | - |
| 1777716008 | 19.44° C | 37% | 1026 hPa | - | - | - | - |
| 1777715708 | 18.89° C | 38% | 1026.2 hPa | - | - | - | - |
| 1777715408 | 18.89° C | 38% | 1026.2 hPa | - | - | - | - |
| 1777715108 | 18.89° C | 37% | 1026.3 hPa | - | - | - | - |
| 1777714808 | 18.89° C | 38% | 1026.2 hPa | - | - | - | - |
| 1777714508 | 18.89° C | 36% | 1026.3 hPa | - | - | - | - |
| 1777714208 | 18.89° C | 35% | 1026.4 hPa | - | - | - | - |
| 1777713907 | 19.44° C | 37% | 1026.1 hPa | - | - | - | - |
| 1777713608 | 19.44° C | 36% | 1026.4 hPa | - | - | - | - |
| 1777713307 | 18.89° C | 37% | 1026.7 hPa | - | - | - | - |
| 1777713009 | 18.33° C | 39% | 1026.4 hPa | - | - | - | - |
| 1777712708 | 18.33° C | 37% | 1026.4 hPa | - | - | - | - |
| 1777712409 | 18.89° C | 40% | 1026.4 hPa | - | - | - | - |
| 1777712108 | 18.89° C | 41% | 1026.6 hPa | - | - | - | - |
| 1777711809 | 17.78° C | 39% | 1026.6 hPa | - | - | - | - |
* Rain since midnight (hover to see other rain measurements)
** Current wind speed in m/s (hover to see current wind gust speed)